| time (UTC) | temp F | wind direction | speed MPH | gust MPH | rain 1hr in | rain 24hr in | rain mn in | humidity % | barometer mb |
| 20260507183030 | 57 | 0 | 0.0 | 2.0 | 0.00 | 0.01 | 0.00 | 76 | 1013.1 |
| 20260507181530 | 57 | 0 | 0.0 | 0.0 | 0.00 | 0.01 | 0.00 | 76 | 1012.9 |
| 20260507180037 | 58 | 0 | 0.0 | 1.0 | 0.00 | 0.01 | 0.00 | 76 | 1012.8 |
| 20260507174538 | 58 | 0 | 0.0 | 0.0 | 0.00 | 0.01 | 0.00 | 75 | 1012.7 |
| 20260507173052 | 59 | 0 | 0.0 | 1.0 | 0.00 | 0.01 | 0.00 | 72 | 1012.7 |
| 20260507171538 | 61 | 0 | 0.0 | 3.0 | 0.00 | 0.01 | 0.00 | 67 | 1012.7 |
| 20260507170037 | 62 | 182 | 0.0 | 4.0 | 0.00 | 0.01 | 0.00 | 65 | 1012.8 |
| 20260507164535 | 63 | 0 | 0.0 | 4.0 | 0.00 | 0.01 | 0.00 | 67 | 1012.7 |
| 20260507163032 | 63 | 0 | 1.0 | 5.0 | 0.00 | 0.01 | 0.00 | 64 | 1012.9 |
| 20260507161540 | 64 | 184 | 0.0 | 4.0 | 0.00 | 0.01 | 0.00 | 64 | 1012.7 |
| 20260507160032 | 65 | 184 | 0.0 | 4.0 | 0.00 | 0.01 | 0.00 | 62 | 1012.8 |
| 20260507154532 | 65 | 184 | 1.0 | 4.0 | 0.00 | 0.01 | 0.00 | 63 | 1012.8 |
| 20260507153033 | 66 | 184 | 0.0 | 5.0 | 0.00 | 0.01 | 0.00 | 66 | 1012.9 |
| 20260507151530 | 65 | 187 | 0.0 | 4.0 | 0.00 | 0.01 | 0.00 | 65 | 1012.9 |
| 20260507150037 | 65 | 0 | 0.0 | 3.0 | 0.00 | 0.01 | 0.00 | 61 | 1012.9 |
| 20260507144532 | 66 | 187 | 0.0 | 4.0 | 0.00 | 0.01 | 0.00 | 62 | 1013.1 |
| 20260507143033 | 67 | 0 | 1.0 | 5.0 | 0.00 | 0.01 | 0.00 | 61 | 1013.2 |
| 20260507141545 | 67 | 187 | 1.0 | 6.0 | 0.00 | 0.01 | 0.00 | 63 | 1013.0 |
| 20260507140031 | 66 | 0 | 1.0 | 5.0 | 0.00 | 0.01 | 0.00 | 60 | 1013.2 |
| 20260507134534 | 67 | 183 | 0.0 | 4.0 | 0.00 | 0.01 | 0.00 | 58 | 1013.2 |
| 20260507133057 | 67 | 182 | 1.0 | 5.0 | 0.00 | 0.01 | 0.00 | 63 | 1013.5 |
| 20260507131530 | 64 | 178 | 2.0 | 6.0 | 0.00 | 0.01 | 0.00 | 68 | 1013.6 |
| 20260507130036 | 65 | 0 | 0.0 | 7.0 | 0.00 | 0.01 | 0.00 | 61 | 1013.5 |
| 20260507124530 | 65 | 188 | 1.0 | 7.0 | 0.00 | 0.03 | 0.00 | 62 | 1013.8 |
| 20260507123037 | 65 | 192 | 1.0 | 4.0 | 0.00 | 0.03 | 0.00 | 57 | 1013.8 |
| 20260507121533 | 66 | 190 | 0.0 | 5.0 | 0.00 | 0.03 | 0.00 | 66 | 1013.9 |
| 20260507120034 | 64 | 0 | 0.0 | 3.0 | 0.00 | 0.03 | 0.00 | 70 | 1013.9 |
| 20260507114530 | 64 | 190 | 1.0 | 4.0 | 0.00 | 0.03 | 0.00 | 67 | 1013.9 |
| 20260507113034 | 64 | 0 | 0.0 | 3.0 | 0.00 | 0.03 | 0.00 | 68 | 1014.0 |
| 20260507111531 | 63 | 0 | 0.0 | 4.0 | 0.00 | 0.03 | 0.00 | 68 | 1014.4 |
| 20260507110040 | 62 | 0 | 0.0 | 5.0 | 0.00 | 0.03 | 0.00 | 70 | 1014.4 |
| 20260507104530 | 60 | 197 | 0.0 | 3.0 | 0.00 | 0.03 | 0.00 | 74 | 1014.5 |
| 20260507103038 | 62 | 196 | 0.0 | 4.0 | 0.00 | 0.03 | 0.00 | 74 | 1014.6 |
| 20260507101536 | 61 | 0 | 0.0 | 5.0 | 0.00 | 0.03 | 0.00 | 75 | 1014.6 |
| 20260507100032 | 61 | 0 | 0.0 | 3.0 | 0.00 | 0.03 | 0.00 | 75 | 1014.6 |
| 20260507094535 | 61 | 0 | 0.0 | 2.0 | 0.00 | 0.04 | 0.00 | 75 | 1014.5 |
| 20260507093030 | 59 | 0 | 0.0 | 3.0 | 0.00 | 0.04 | 0.00 | 76 | 1014.5 |
| 20260507091533 | 60 | 196 | 0.0 | 4.0 | 0.00 | 0.04 | 0.00 | 78 | 1014.4 |
| 20260507090029 | 60 | 0 | 1.0 | 4.0 | 0.00 | 0.04 | 0.00 | 78 | 1014.3 |
| 20260507084531 | 57 | 0 | 0.0 | 2.0 | 0.00 | 0.04 | 0.00 | 80 | 1014.4 |
| 20260507083032 | 54 | 0 | 0.0 | 2.0 | 0.00 | 0.04 | 0.00 | 86 | 1014.4 |
| 20260507081537 | 55 | 0 | 0.0 | 3.0 | 0.00 | 0.04 | 0.00 | 86 | 1014.4 |
| 20260507080031 | 56 | 0 | 0.0 | 5.0 | 0.00 | 0.04 | 0.00 | 86 | 1014.4 |
| 20260507074531 | 55 | 0 | 1.0 | 4.0 | 0.00 | 0.04 | 0.00 | 89 | 1014.4 |
| 20260507073031 | 54 | 196 | 0.0 | 4.0 | 0.00 | 0.04 | 0.00 | 89 | 1014.3 |
| 20260507071530 | 55 | 196 | 1.0 | 4.0 | 0.00 | 0.04 | 0.00 | 90 | 1014.2 |
| 20260507070041 | 54 | 0 | 0.0 | 1.0 | 0.00 | 0.04 | 0.00 | 90 | 1014.0 |
| 20260507064530 | 52 | 196 | 0.0 | 2.0 | 0.00 | 0.09 | 0.00 | 95 | 1014.1 |
| 20260507063035 | 50 | 0 | 0.0 | 2.0 | 0.00 | 0.09 | 0.00 | 96 | 1013.9 |
| 20260507061537 | 49 | 0 | 0.0 | 2.0 | 0.00 | 0.09 | 0.00 | 97 | 1013.9 |
| 20260507060032 | 48 | 0 | 0.0 | 2.0 | 0.00 | 0.09 | 0.00 | 97 | 1014.1 |
| 20260507054533 | 47 | 196 | 0.0 | 2.0 | 0.00 | 0.13 | 0.00 | 97 | 1014.1 |
| 20260507053031 | 46 | 0 | 0.0 | 3.0 | 0.00 | 0.13 | 0.00 | 97 | 1013.9 |
| 20260507051532 | 45 | 0 | 0.0 | 1.0 | 0.00 | 0.13 | 0.00 | 97 | 1013.7 |
| 20260507050036 | 43 | 0 | 0.0 | 0.0 | 0.00 | 0.13 | 0.00 | 97 | 1013.7 |
| 20260507044531 | 43 | 0 | 0.0 | 1.0 | 0.00 | 0.22 | 0.00 | 96 | 1013.6 |
| 20260507043030 | 42 | 0 | 0.0 | 0.0 | 0.00 | 0.22 | 0.00 | 97 | 1013.4 |
| 20260507041530 | 42 | 0 | 0.0 | 0.0 | 0.00 | 0.22 | 0.00 | 96 | 1013.4 |
| 20260507040033 | 42 | 0 | 0.0 | 0.0 | 0.00 | 0.22 | 0.00 | 96 | 1013.5 |
| 20260507034540 | 42 | 0 | 0.0 | 0.0 | 0.00 | 0.37 | 0.00 | 96 | 1013.4 |
| 20260507033043 | 43 | 0 | 0.0 | 0.0 | 0.00 | 0.37 | 0.00 | 96 | 1013.3 |
| 20260507031545 | 43 | 0 | 0.0 | 0.0 | 0.00 | 0.37 | 0.00 | 96 | 1013.2 |
| 20260507030033 | 43 | 0 | 0.0 | 0.0 | 0.00 | 0.37 | 0.00 | 96 | 1013.2 |
| 20260507024534 | 44 | 0 | 0.0 | 0.0 | 0.00 | 0.46 | 0.00 | 96 | 1013.3 |
| 20260507023029 | 44 | 0 | 0.0 | 0.0 | 0.00 | 0.46 | 0.00 | 96 | 1013.2 |
| 20260507021533 | 45 | 0 | 0.0 | 0.0 | 0.00 | 0.46 | 0.00 | 96 | 1013.2 |
| 20260507020034 | 46 | 0 | 0.0 | 0.0 | 0.00 | 0.46 | 0.00 | 96 | 1013.0 |
| 20260507014700 | 46 | 0 | 0.0 | 0.0 | 0.00 | 0.51 | 0.00 | 96 | 1012.9 |
| 20260507014541 | 46 | 0 | 0.0 | 0.0 | 0.00 | 0.51 | 0.00 | 96 | 1012.9 |
| 20260507013038 | 47 | 0 | 0.0 | 0.0 | 0.00 | 0.51 | 0.00 | 96 | 1012.9 |
| 20260507011536 | 46 | 0 | 0.0 | 1.0 | 0.00 | 0.51 | 0.00 | 96 | 1013.0 |
| 20260507010040 | 45 | 0 | 0.0 | 0.0 | 0.00 | 0.51 | 0.00 | 96 | 1013.1 |
| 20260507004532 | 45 | 0 | 0.0 | 0.0 | 0.00 | 0.52 | 0.00 | 95 | 1013.2 |
| 20260507003031 | 45 | 0 | 0.0 | 0.0 | 0.00 | 0.52 | 0.00 | 95 | 1013.3 |
| 20260507001534 | 45 | 0 | 0.0 | 0.0 | 0.00 | 0.52 | 0.00 | 95 | 1013.2 |
| 20260507000030 | 47 | 0 | 0.0 | 0.0 | 0.00 | 0.52 | 0.00 | 95 | 1012.8 |
| 20260506234530 | 47 | 0 | 0.0 | 0.0 | 0.00 | 0.61 | 0.00 | 95 | 1012.9 |
| 20260506233030 | 48 | 0 | 0.0 | 0.0 | 0.00 | 0.61 | 0.00 | 95 | 1012.9 |
| 20260506231534 | 48 | 0 | 0.0 | 0.0 | 0.00 | 0.61 | 0.00 | 95 | 1012.9 |
| 20260506230032 | 48 | 0 | 0.0 | 0.0 | 0.00 | 0.61 | 0.00 | 95 | 1012.8 |
| 20260506224531 | 49 | 0 | 0.0 | 0.0 | 0.00 | 0.74 | 0.00 | 95 | 1012.7 |
| 20260506223032 | 49 | 0 | 0.0 | 2.0 | 0.00 | 0.74 | 0.00 | 95 | 1012.7 |
| 20260506221532 | 49 | 0 | 0.0 | 3.0 | 0.00 | 0.74 | 0.00 | 95 | 1012.8 |
| 20260506220032 | 49 | 0 | 0.0 | 1.0 | 0.00 | 0.74 | 0.00 | 95 | 1012.8 |
| 20260506214530 | 50 | 0 | 0.0 | 1.0 | 0.00 | 0.75 | 0.74 | 95 | 1012.7 |
| 20260506213032 | 49 | 196 | 0.0 | 2.0 | 0.00 | 0.75 | 0.74 | 95 | 1012.6 |
| 20260506211530 | 49 | 0 | 0.0 | 0.0 | 0.00 | 0.75 | 0.74 | 95 | 1012.5 |
| 20260506210034 | 50 | 0 | 0.0 | 0.0 | 0.00 | 0.75 | 0.74 | 95 | 1012.5 |
| 20260506204530 | 50 | 0 | 0.0 | 0.0 | 0.00 | 0.76 | 0.74 | 95 | 1012.5 |
| 20260506203038 | 50 | 0 | 0.0 | 3.0 | 0.00 | 0.76 | 0.74 | 94 | 1012.4 |
| 20260506201537 | 50 | 0 | 0.0 | 1.0 | 0.00 | 0.76 | 0.74 | 94 | 1012.0 |
| 20260506200035 | 50 | 0 | 0.0 | 0.0 | 0.00 | 0.76 | 0.74 | 93 | 1011.9 |
| 20260506194531 | 50 | 0 | 0.0 | 0.0 | 0.01 | 0.82 | 0.74 | 92 | 1011.7 |
| 20260506193030 | 51 | 0 | 0.0 | 1.0 | 0.01 | 0.82 | 0.74 | 92 | 1011.3 |
| 20260506191532 | 52 | 0 | 0.0 | 0.0 | 0.01 | 0.82 | 0.74 | 91 | 1011.3 |
| 20260506190037 | 53 | 0 | 0.0 | 0.0 | 0.01 | 0.82 | 0.74 | 91 | 1011.3 |
| 20260506184543 | 53 | 0 | 0.0 | 3.0 | 0.00 | 0.88 | 0.72 | 90 | 1011.2 |